This demonstration page uses our WeatherBlox Daily Observations layout. Learn more.

Hourly Observations for March 4, 2018

Temp ( °F °C ) Dew Point ( °F °C ) Humidity (%) Winds ( mph kmh ) Pressure ( in mb ) Visibility ( mi km ) Precip ( " mm )
12:15 am 00:15 Clear 55 12.5 49 9.2 80 80 S 21 33 29.8 1009 10 16.0934 0 0
12:35 am 00:35 Clear 54 12.3 48 9 80 80 S 22 35 29.8 1009 10 16.0934 0 0
12:55 am 00:55 Clear 54 12.2 48 8.7 79 79 SSE 18 30 29.8 1009 10 16.0934 0 0
1:15 am 01:15 Clear 54 12 47 8.6 80 80 SSE 16 26 29.8 1009 10 16.0934 0 0
1:35 am 01:35 Clear 52 10.9 47 8.1 83 83 SSE 15 24 29.8 1009 10 16.0934 0 0
1:55 am 01:55 Clear 50 10 46 8 88 88 SSE 14 22 29.83 1010 10 16.0934 0 0
2:15 am 02:15 Clear 49 9.7 46 7.8 88 88 SSE 14 22 29.83 1010 10 16.0934 0 0
2:35 am 02:35 Clear 49 9.7 46 7.6 87 87 SSE 16 26 29.8 1009 10 16.0934 0 0
2:55 am 02:55 Clear 49 9.2 45 7.3 88 88 SSE 15 24 29.8 1009 10 16.0934 0 0
3:15 am 03:15 Clear 48 8.7 45 7.2 90 90 SSE 15 24 29.8 1009 10 16.0934 0 0
3:35 am 03:35 Clear 48 9 45 7.3 89 89 SSE 17 28 29.8 1009 10 16.0934 0 0
3:55 am 03:55 Clear 48 9 45 7.3 89 89 SSE 15 24 29.8 1009 10 16.0934 0 0
4:15 am 04:15 Mostly Cloudy 49 9.5 46 7.6 88 88 SSE 20 31 29.8 1009 10 16.0934 0 0
4:35 am 04:35 Cloudy 49 9.7 46 7.7 87 87 SSE 17 28 29.8 1009 10 16.0934 0 0
4:55 am 04:55 Cloudy 49 9.5 46 7.6 88 88 SSE 16 26 29.8 1009 10 16.0934 0 0
5:15 am 05:15 Cloudy 49 9.7 46 7.9 89 89 SSE 17 28 29.8 1009 10 16.0934 0 0
5:35 am 05:35 Cloudy 50 10 46 8 88 88 SSE 20 31 29.8 1009 10 16.0934 0 0
5:55 am 05:55 Cloudy 50 10.1 47 8.3 89 89 SSE 18 30 29.8 1009 10 16.0934 0 0
6:15 am 06:15 Cloudy 50 10 47 8.2 89 89 S 20 31 29.8 1009 10 16.0934 0 0
6:35 am 06:35 Cloudy 49 9.7 47 8.1 90 90 S 15 24 29.8 1009 10 16.0934 0 0
6:55 am 06:55 Cloudy 49 9.7 47 8.4 92 92 S 15 24 29.77 1008 10 16.0934 0 0
7:15 am 07:15 Cloudy 49 9.7 47 8.5 92 92 S 15 24 29.77 1008 10 16.0934 0 0
7:35 am 07:35 Cloudy 50 9.9 48 8.8 93 93 S 15 24 29.77 1008 10 16.0934 0 0
7:55 am 07:55 Cloudy 50 10 48 9 94 94 S 18 30 29.77 1008 10 16.0934 0 0
8:15 am 08:15 Cloudy 50 10.1 49 9.2 94 94 S 18 30 29.77 1008 10 16.0934 0 0
8:35 am 08:35 Cloudy 51 10.5 49 9.3 92 92 S 17 28 29.74 1007 10 16.0934 0 0
8:55 am 08:55 Cloudy 52 11 49 9.6 91 91 S 16 26 29.74 1007 10 16.0934 0 0
9:15 am 09:15 Cloudy 52 11.3 49 9.7 90 90 S 17 28 29.74 1007 10 16.0934 0 0
9:35 am 09:35 Cloudy 53 11.6 49 9.7 88 88 S 18 30 29.71 1006 10 16.0934 0 0
9:55 am 09:55 Cloudy 54 12.2 50 9.8 85 85 S 21 33 29.71 1006 10 16.0934 0 0
10:15 am 10:15 Cloudy 55 12.9 50 9.8 82 82 S 24 39 29.71 1006 10 16.0934 0 0
10:35 am 10:35 Cloudy 57 14 49 9.6 75 75 S 20 31 29.68 1005 10 16.0934 0 0
10:55 am 10:55 Mostly Cloudy 58 14.3 49 9.7 74 74 S 23 37 29.68 1005 10 16.0934 0 0
11:15 am 11:15 Mostly Cloudy 58 14.6 49 9.5 72 72 S 20 31 29.68 1005 10 16.0934 0 0
11:35 am 11:35 Mostly Cloudy 60 15.6 49 9.5 67 67 S 24 39 29.65 1004 10 16.0934 0 0
11:55 am 11:55 Partly Cloudy 61 16.3 49 9.5 64 64 S 26 43 29.65 1004 10 16.0934 0 0
12:15 pm 12:15 Sunny 64 17.5 49 9.3 59 59 S 22 35 29.62 1003 10 16.0934 0 0
12:35 pm 12:35 Sunny 64 17.9 49 9.3 57 57 S 22 35 29.62 1003 10 16.0934 0 0
12:55 pm 12:55 Sunny 65 18.1 48 8.8 55 55 S 24 39 29.59 1002 10 16.0934 0 0
1:15 pm 13:15 Sunny 67 19.2 48 8.9 51 51 S 20 31 29.59 1002 10 16.0934 0 0
1:35 pm 13:35 Sunny 67 19.7 46 7.7 46 46 S 20 31 29.53 1000 10 16.0934 0 0
1:55 pm 13:55 Sunny 68 20.1 44 6.5 41 41 SSE 28 44 29.5 999 10 16.0934 0 0
2:15 pm 14:15 Sunny 70 21.1 43 6.2 38 38 SSE 21 33 29.5 999 10 16.0934 0 0
2:35 pm 14:35 Sunny 71 21.6 40 4.2 32 32 S 20 31 29.5 999 10 16.0934 0 0
2:55 pm 14:55 Sunny 72 22 40 4.6 32 32 S 16 26 29.5 999 10 16.0934 0 0
3:15 pm 15:15 Sunny 73 23 36 2.1 25 25 S 21 33 29.44 997 10 16.0934 0 0
3:35 pm 15:35 Sunny 74 23.5 32 0 21 21 S 23 37 29.44 997 10 16.0934 0 0
3:55 pm 15:55 Sunny 74 23.6 30 -1.1 19 19 SSW 20 31 29.41 996 10 16.0934 0 0
4:15 pm 16:15 Sunny 74 23.6 30 -1.3 19 19 S 21 33 29.41 996 10 16.0934 0 0
4:35 pm 16:35 Sunny 75 23.7 28 -2.5 17 17 SSW 16 26 29.41 996 10 16.0934 0 0
4:55 pm 16:55 Sunny 75 24 27 -2.9 17 17 S 22 35 29.41 996 10 16.0934 0 0
5:15 pm 17:15 Sunny 74 23.6 26 -3.2 17 17 SSW 22 35 29.41 996 10 16.0934 0 0
5:35 pm 17:35 Sunny 73 23 26 -3.4 17 17 S 17 28 29.41 996 10 16.0934 0 0
5:55 pm 17:55 Sunny 71 21.7 26 -3.4 18 18 S 13 20 29.44 997 10 16.0934 0 0
6:15 pm 18:15 Sunny 68 19.9 25 -3.7 20 20 S 8 13 29.44 997 10 16.0934 0 0
6:35 pm 18:35 Clear 61 16 26 -3.6 26 26 SSE 8 13 29.47 998 10 16.0934 0 0
6:55 pm 18:55 Clear 55 12.9 26 -3.1 33 33 ESE 6 9 29.5 999 10 16.0934 0 0
7:15 pm 19:15 Clear 59 15.1 44 6.9 58 58 SSE 17 28 29.47 998 10 16.0934 0 0
7:35 pm 19:35 Clear 62 16.9 53 11.5 71 71 SSE 21 33 29.44 997 10 16.0934 0 0
7:55 pm 19:55 Clear 62 16.4 54 12 75 75 SSE 21 33 29.47 998 10 16.0934 0 0
8:15 pm 20:15 Clear 60 15.7 54 12 79 79 SSE 20 31 29.47 998 10 16.0934 0 0
8:35 pm 20:35 Clear 59 15.1 54 12 82 82 SSE 23 37 29.44 997 10 16.0934 0 0
8:55 pm 20:55 Clear 59 15 54 12.2 83 83 SSE 24 39 29.44 997 10 16.0934 0 0
9:15 pm 21:15 Clear 58 14.4 54 12 86 86 SSE 21 33 29.47 998 10 16.0934 0 0
9:35 pm 21:35 Clear 57 13.8 54 12 89 89 SSE 22 35 29.47 998 10 16.0934 0 0
9:55 pm 21:55 Mostly Cloudy 56 13.6 54 12.1 91 91 SE 20 31 29.47 998 10 16.0934 0 0
10:15 pm 22:15 Cloudy 57 13.7 54 12.1 90 90 SSE 17 28 29.47 998 10 16.0934 0 0
10:35 pm 22:35 Cloudy 58 14.2 54 12.3 88 88 S 9 15 29.5 999 10 16.0934 0 0
10:55 pm 22:55 Cloudy 48 8.7 42 5.5 81 81 NNW 22 35 29.53 1000 10 16.0934 0 0
11:15 pm 23:15 Cloudy 42 5.8 39 3.7 87 87 NNW 23 37 29.59 1002 10 16.0934 0 0
11:35 pm 23:35 Cloudy 39 4 36 2.2 88 88 NNW 18 30 29.62 1003 10 16.0934 0 0
11:55 pm 23:55 Cloudy 38 3.4 34 1.3 86 86 NNW 24 39 29.65 1004 10 16.0934 0 0

Powered by AerisWeather